Powrót do katalogu

STARLINK-2356

AktywnyŁącznośćVLEO
NORAD 47896·PAYLOAD·🇺🇸 United States

Wystrzelony Mar 14, 2021 z Cape Canaveral Space Force Station

Loading…

Następne Przeloty (najbliższe 24 godziny)

TLE

ŚwieżeSource: CelesTrak SupGP

Epoka: Sep 14, 2026, 21:03 UTC

1 47896C 21021AN  26257.87756944 -.00018413  00000+0 -59219-3 0  2576
2 47896  53.1571 120.5298 0001423  92.5103  39.9554 15.31706362    15

Śledź STARLINK-2356 w czasie rzeczywistym z AllMySat

Download on the App Store